Miscellaneous Local Product
Issued by NWS North Platte, NE

Home | Current Version | Previous Version | Text Only | Print | Product List | Glossary On
Versions: 1 2 3 4 5 6 7 8 9 10 11 12 13 14 15 16 17 18 19 20 21 22 23 24 25 26 27 28 29 30 31 32 33 34 35 36 37 38 39 40 41 42 43 44 45 46 47 48 49 50
000
AXUS43 KLBF 300510
MISLBF


WESTERN AND NORTH CENTRAL NEBRASKA HOURLY WEATHER ROUNDUP
NATIONAL WEATHER SERVICE NORTH PLATTE NE
1200 AM CDT SUN AUG 30 2015

NOTE: "FAIR" INDICATES FEW OR NO CLOUDS BELOW 12,000 FEET WITH NO
SIGNIFICANT WEATHER AND/OR OBSTRUCTIONS TO VISIBILITY.

NOTE: STATIONS NOT REPORTING VARIABLES SUCH AS SKY/WEATHER OR
PRESSURE ARE PROVIDED BY THE NEBRASKA DEPARTMENT OF
ROADS...RAWS...AND APRS NETWORKS...AND ARE NOT UNDER
NATIONAL WEATHER SERVICE QUALITY CONTROL.

...OBSERVATIONS IN AND NEAR THE EASTERN PANHANDLE OF NEBRASKA...

CITY           SKY/WX    TMP DP  RH WIND       PRES   REMARKS
PINE RIDGE     CLEAR     79  44  28 S14G23    29.97F
CHADRON        PTCLDY    80  41  24 S21       29.95F
ALLIANCE       CLEAR     67  47  48 S14       30.04S
SIDNEY         CLEAR     68  43  40 S12       30.11S
CRESCENT LAKE    N/A     68  53  57 S8          N/A
BIG SPRINGS      N/A     70  51  51 S12         N/A
$$

...OBSERVATIONS IN NORTH CENTRAL NEBRASKA...

CITY           SKY/WX    TMP DP  RH WIND       PRES   REMARKS
VALENTINE      CLEAR     73  59  61 S14       29.98S
THEDFORD       CLEAR     69  62  79 S9        30.05S
AINSWORTH      CLEAR     70  62  75 S13       30.01S
O`NEILL        CLOUDY    67  65  93 S7        30.01S
ORD            CLEAR     60  58  92 CALM      30.03S
BROKEN BOW     CLEAR     64  61  90 CALM      30.05S
SPRINGVIEW       N/A     71  63  76 E3          N/A
SARGENT          N/A     64  61  91 CALM        N/A
CHAMBERS         N/A     65  63  92 S5          N/A
EWING            N/A     64  60  87 CALM        N/A
$$

...OBSERVATIONS IN SOUTHWEST NEBRASKA AND FAR NORTHEAST COLORADO...

CITY           SKY/WX    TMP DP  RH WIND       PRES   REMARKS
WRAY           FAIR      71  40  32 S10       30.10S
HOLYOKE        FAIR      64  45  48 S8        30.09F
IMPERIAL       CLEAR     66  50  56 S7        30.08S
OGALLALA       CLEAR     69  54  57 S13G18    30.05F
NORTH PLATTE   CLEAR     69  57  65 S8        30.06R
MCCOOK         CLEAR     67  53  61 S10       30.06F
LEXINGTON      CLEAR     64  58  82 SE5       30.06S
PAXTON           N/A     66  57  74 SE9         N/A
BRADY            N/A     62  59  90 CALM        N/A
CALLAWAY         N/A     64  62  94 S8          N/A
$$

...OBSERVATIONS IN CENTRAL LINCOLN COUNTY AREA...

CITY           SKY/WX    TMP DP  RH WIND       PRES   REMARKS
N.P. AIRPORT   CLEAR     69  57  65 S8        30.06R
N.P. DOWNTOWN    N/A     71  58  64 CALM        N/A
N.P. SOUTHEAST   N/A     70  58  64 SE3         N/A
$$

...SOME OBSERVATIONS FROM AROUND THE REGION...

CITY           SKY/WX    TMP DP  RH WIND       PRES   REMARKS
DENVER         PTCLDY    72  37  28 S16       30.14F
LARAMIE        PTCLDY    59  39  47 S12       30.24F
CHEYENNE       PTCLDY    69  42  37 S13       30.18F
SCOTTSBLUFF    CLEAR     64  48  56 E9        30.04S
RAPID CITY     PTCLDY    71  47  42 SE7       29.92F
PIERRE         CLEAR     75  61  61 SE13      29.86F
WINNER         FAIR      76  59  55 S16       29.93F
SIOUX FALLS    PTCLDY    64  61  90 S9        30.00F
OMAHA          CLOUDY    68  64  87 SE5       30.05S
GRAND ISLAND   CLEAR     65  63  93 S10       30.06F
KANSAS CITY    MOCLDY    65  64  97 NW6       30.05S
WICHITA        CLEAR     66  61  84 NE7       30.04S
HAYS           CLEAR     63  54  72 SE3       30.07F
LIBERAL        CLEAR     66  52  59 CALM      30.11F
GOODLAND       CLEAR     64  49  57 S10       30.13S
$$



USA.gov is the U.S. government's official web portal to all federal, state and local government web resources and services.